Regional Weather Roundup
Issued by NWS Mt. Holly, NJ

Current Version | Previous Version | Text Only | Print | Product List | Glossary On
Versions: 1 2 3 4 5 6 7 8 9 10 11 12 13 14 15 16 17 18 19 20 21 22 23 24 25 26 27 28 29 30 31 32 33 34 35 36 37 38 39 40 41 42 43 44 45 46 47 48 49 50
000
ASUS41 KPHI 260211
RWRPHI

REGIONAL WEATHER ROUNDUP
NATIONAL WEATHER SERVICE MOUNT HOLLY NJ
1000 PM EDT SAT APR 25 2015

NOTE:  "FAIR" INDICATES FEW OR NO CLOUDS BELOW 12,000 FEET WITH NO
SIGNIFICANT WEATHER AND/OR OBSTRUCTIONS TO VISIBILITY.

 * = STATION DOES NOT REPORT PRECIPITATION (E.G. RAIN, SNOW, ETC.)
        OR FOG.

NJZ015>026-260300-
SOUTHERN NEW JERSEY

CITY           SKY/WX    TMP DP  RH WIND       PRES   REMARKS
POMONA         CLOUDY    48  32  53 S5        29.73F
MILLVILLE      CLOUDY    47  35  63 CALM      29.72F
WRIGHTSTOWN    CLOUDY    47  27  44 SW6       29.69F
MOUNT HOLLY    CLOUDY    47  29  49 CALM      29.71F
TRENTON        CLOUDY    49  27  42 SW6       29.70S

$$
NJZ001>014-260300-
NORTHERN NEW JERSEY

CITY           SKY/WX    TMP DP  RH WIND       PRES   REMARKS
SUSSEX         CLEAR     39  29  67 E3        29.73R
ANDOVER*         N/A     44  30  57 CALM      29.71S
MORRISTOWN     PTCLDY   N/A N/A N/A CALM      29.71S
NEWARK         MOCLDY    54  33  45 CALM      29.70S
TETERBORO      PTCLDY    54  23  30 CALM      29.69S
CALDWELL       PTCLDY    50  26  39 CALM      29.71S
SOMERVILLE     CLOUDY    44  31  60 CALM      29.69R
ALLAIRE*       CLOUDY    50  25  37 SW7       29.70S
TOMS RIVER*    CLOUDY    46  28  49 S5        29.72R

$$
PAZ043-044-047-054-055-060>062-066>071-260300-
EASTERN PENNSYLVANIA

CITY           SKY/WX    TMP DP  RH WIND       PRES   REMARKS
PHILADELPHIA   CLOUDY    51  29  42 SW9       29.72F
NORTH PHILA    CLOUDY    52  26  36 SW6       29.73S
BLUE BELL      CLOUDY    48  32  53 CALM      29.70F
DOYLESTOWN     CLOUDY    49  26  41 SW3       29.70S
QUAKERTOWN*    CLOUDY    46  32  57 CALM      29.71S
POTTSTOWN      CLOUDY    49  25  39 CALM      29.72F
LANCASTER      CLOUDY    50  24  36 CALM      29.71S
COATESVILLE    CLOUDY    46  34  61 W3        29.72S
READING        CLOUDY    51  23  33 CALM      29.70S
ALLENTOWN      CLOUDY    51  25  36 N3        29.70F
MOUNT POCONO   PTCLDY    42  23  46 N7        29.70S
HAZLETON       MOCLDY    45  23  42 N3        29.74R
WILKES BARRE   CLEAR     47  26  44 NE6       29.73R

$$
DEZALL-MDZ008-012-015-019-020-260300-
DELAWARE AND EASTERN MARYLAND

CITY           SKY/WX    TMP DP  RH WIND       PRES   REMARKS
WILMINGTON     CLOUDY    48  34  58 SW6       29.73F
DOVER          CLOUDY    47  37  69 SW7       29.69F
GEORGETOWN     LGT RAIN  44  43  96 CALM      29.72F FOG
EASTON         CLOUDY    46  46 100 NW5       29.78
PATUXENT       LGT RAIN  45  43  93 NE3       29.73R
OCEAN CITY     CLOUDY    45  43  93 NE5       29.73F
WALLOPS ISLAND CLOUDY    45  44  97 CALM      29.72F
CAMBRIDGE      CLOUDY    45  41  87 CALM      29.73R
SALISBURY      LGT RAIN  45  44  97 NE5       29.72F

$$
PAZ001-021-NYZ056-072-MDZ011-DCZ001-260300-
OTHER NEARBY LOCATIONS

CITY           SKY/WX    TMP DP  RH WIND       PRES   REMARKS
HARRISBURG     CLOUDY    51  24  34 CALM      29.71S
WILLIAMSPORT   MOCLDY    48  26  42 E7        29.73R
BINGHAMTON     CLEAR     38  25  59 N9        29.75S WCI  31
NEW YORK CITY  PTCLDY    51  34  52 CALM      29.72F
BALTIMORE      LGT RAIN  42  39  89 SW6       29.76R
WASHINGTON DC  LGT RAIN  45  40  82 N12       29.77R

$$



USA.gov is the U.S. government's official web portal to all federal, state and local government web resources and services.